TimeMST,TemperatureF,Dew PointF,Humidity,Sea Level PressureIn,VisibilityMPH,Wind Direction,Wind SpeedMPH,Gust SpeedMPH,PrecipitationIn,Events,Conditions,WindDirDegrees,DateUTC
12:15 AM,32.0,19.4,60,29.76,10.0,South,8.1,-,N/A,,Clear,180,2013-01-28 07:15:00
12:35 AM,32.0,17.6,55,29.75,10.0,SW,10.4,-,N/A,,Clear,220,2013-01-28 07:35:00
12:55 AM,35.6,17.6,48,29.75,10.0,SSW,6.9,-,N/A,,Clear,210,2013-01-28 07:55:00
1:15 AM,28.4,17.6,64,29.75,10.0,South,5.8,-,N/A,,Clear,190,2013-01-28 08:15:00
1:35 AM,28.4,17.6,64,29.74,10.0,South,6.9,-,N/A,,Clear,190,2013-01-28 08:35:00
1:55 AM,32.0,17.6,55,29.73,10.0,SSW,5.8,-,N/A,,Clear,210,2013-01-28 08:55:00
2:15 AM,30.2,17.6,60,29.73,10.0,SSW,5.8,-,N/A,,Clear,200,2013-01-28 09:15:00
2:35 AM,32.0,17.6,55,29.73,10.0,SW,4.6,-,N/A,,Clear,220,2013-01-28 09:35:00
2:55 AM,30.2,17.6,60,29.73,10.0,SSE,6.9,-,N/A,,Clear,160,2013-01-28 09:55:00
3:14 AM,32.0,17.6,55,29.73,10.0,SSE,10.4,-,N/A,,Clear,160,2013-01-28 10:14:00
3:33 AM,32.0,17.6,55,29.72,10.0,South,8.1,-,N/A,,Clear,190,2013-01-28 10:33:00
3:55 AM,30.2,19.4,64,29.72,10.0,South,10.4,-,N/A,,Clear,180,2013-01-28 10:55:00
4:15 AM,30.2,19.4,64,29.71,10.0,South,11.5,-,N/A,,Clear,170,2013-01-28 11:15:00
4:35 AM,30.2,19.4,64,29.70,10.0,South,11.5,-,N/A,,Clear,180,2013-01-28 11:35:00
5:14 AM,28.4,19.4,69,29.69,10.0,South,10.4,-,N/A,,Clear,170,2013-01-28 12:14:00
5:34 AM,28.4,19.4,69,29.69,10.0,SSW,9.2,-,N/A,,Clear,200,2013-01-28 12:34:00
5:53 AM,32.0,19.4,60,29.68,10.0,South,10.4,-,N/A,,Clear,180,2013-01-28 12:53:00
6:14 AM,28.4,19.4,69,29.68,10.0,South,10.4,-,N/A,,Clear,170,2013-01-28 13:14:00
6:34 AM,28.4,19.4,69,29.67,10.0,SSE,10.4,-,N/A,,Clear,160,2013-01-28 13:34:00
6:54 AM,30.2,19.4,64,29.66,10.0,South,9.2,-,N/A,,Clear,170,2013-01-28 13:54:00
7:14 AM,28.4,19.4,69,29.66,10.0,South,8.1,-,N/A,,Clear,170,2013-01-28 14:14:00
7:34 AM,30.2,21.2,69,29.65,10.0,SSE,8.1,-,N/A,,Clear,160,2013-01-28 14:34:00
7:54 AM,32.0,21.2,64,29.65,10.0,SSE,8.1,-,N/A,,Clear,160,2013-01-28 14:54:00
8:13 AM,33.8,23.0,65,29.65,10.0,South,3.5,-,N/A,,Clear,190,2013-01-28 15:13:00
8:33 AM,39.2,23.0,52,29.63,10.0,Calm,Calm,-,N/A,,Clear,0,2013-01-28 15:33:00
8:53 AM,42.8,24.8,49,29.63,10.0,SSW,12.7,19.6,N/A,,Clear,210,2013-01-28 15:53:00
9:14 AM,44.6,23.0,43,29.63,10.0,SSW,13.8,21.9,N/A,,Clear,210,2013-01-28 16:14:00
9:33 AM,46.4,23.0,40,29.63,10.0,SSW,16.1,20.7,N/A,,Clear,200,2013-01-28 16:33:00
10:13 AM,48.2,21.2,34,29.62,10.0,South,12.7,19.6,N/A,,Clear,190,2013-01-28 17:13:00
10:34 AM,50.0,21.2,32,29.61,10.0,SSW,11.5,20.7,N/A,,Clear,200,2013-01-28 17:34:00
10:54 AM,50.0,21.2,32,29.60,10.0,South,12.7,20.7,N/A,,Clear,180,2013-01-28 17:54:00
11:35 AM,51.8,21.2,30,29.58,10.0,SSW,17.3,23.0,N/A,,Clear,200,2013-01-28 18:35:00
11:55 AM,50.0,21.2,32,29.57,10.0,SSW,11.5,20.7,N/A,,Clear,210,2013-01-28 18:55:00
12:15 PM,48.2,21.2,34,29.56,10.0,South,10.4,16.1,N/A,,Mostly Cloudy,180,2013-01-28 19:15:00
12:33 PM,50.0,21.2,32,29.55,10.0,South,15.0,18.4,N/A,,Overcast,190,2013-01-28 19:33:00
12:55 PM,50.0,21.2,32,29.55,10.0,SSW,16.1,25.3,N/A,,Overcast,210,2013-01-28 19:55:00
1:14 PM,51.8,21.2,30,29.54,10.0,SW,13.8,-,N/A,,Mostly Cloudy,220,2013-01-28 20:14:00
1:35 PM,51.8,21.2,30,29.54,10.0,WSW,21.9,29.9,N/A,,Scattered Clouds,250,2013-01-28 20:35:00
1:55 PM,51.8,21.2,30,29.53,10.0,WSW,18.4,26.5,N/A,,Clear,240,2013-01-28 20:55:00
2:15 PM,51.8,17.6,26,29.53,10.0,WSW,21.9,28.8,N/A,,Clear,250,2013-01-28 21:15:00
2:35 PM,50.0,19.4,30,29.54,10.0,West,18.4,23.0,N/A,,Clear,260,2013-01-28 21:35:00
2:55 PM,50.0,19.4,30,29.54,10.0,WSW,19.6,23.0,N/A,,Clear,250,2013-01-28 21:55:00
3:15 PM,48.2,19.4,32,29.56,10.0,West,20.7,26.5,N/A,,Clear,260,2013-01-28 22:15:00
3:34 PM,44.6,26.6,49,29.58,10.0,WNW,21.9,27.6,N/A,,Clear,300,2013-01-28 22:34:00
3:54 PM,37.4,28.4,70,29.60,10.0,NNE,20.7,27.6,N/A,,Scattered Clouds,20,2013-01-28 22:54:00
4:15 PM,32.0,28.4,87,29.62,10.0,NNE,15.0,21.9,N/A,,Overcast,30,2013-01-28 23:15:00
4:34 PM,32.0,28.4,87,29.63,10.0,NNE,17.3,23.0,N/A,,Overcast,20,2013-01-28 23:34:00
4:55 PM,32.0,28.4,87,29.65,10.0,North,16.1,20.7,N/A,Snow,Light Snow,10,2013-01-28 23:55:00
5:15 PM,30.2,28.4,93,29.65,7.0,North,12.7,-,N/A,Snow,Light Snow,10,2013-01-29 00:15:00
5:34 PM,28.4,28.4,100,29.65,1.0,NE,9.2,-,N/A,Snow,Snow,40,2013-01-29 00:34:00
5:55 PM,28.4,26.6,93,29.66,2.0,NNE,12.7,-,N/A,Snow,Light Snow,30,2013-01-29 00:55:00
6:15 PM,26.6,26.6,100,29.67,4.0,NNE,10.4,-,N/A,Snow,Light Snow,30,2013-01-29 01:15:00
6:35 PM,26.6,26.6,100,29.68,10.0,NNE,8.1,-,N/A,,Overcast,20,2013-01-29 01:35:00
6:55 PM,26.6,26.6,100,29.68,10.0,NE,5.8,-,N/A,,Overcast,40,2013-01-29 01:55:00
7:14 PM,26.6,26.6,100,29.67,10.0,ENE,8.1,-,N/A,,Overcast,60,2013-01-29 02:14:00
7:35 PM,26.6,24.8,93,29.67,10.0,NNE,6.9,-,N/A,,Overcast,20,2013-01-29 02:35:00
7:55 PM,26.6,24.8,93,29.67,2.5,NE,8.1,-,N/A,,Overcast,40,2013-01-29 02:55:00
8:15 PM,24.8,24.8,100,29.67,0.2,NNE,6.9,-,N/A,Fog,Light Freezing Fog,30,2013-01-29 03:15:00
8:35 PM,24.8,24.8,100,29.68,0.2,NNE,8.1,-,N/A,Fog,Light Freezing Fog,30,2013-01-29 03:35:00
8:55 PM,24.8,24.8,100,29.68,0.8,North,4.6,-,N/A,,Overcast,10,2013-01-29 03:55:00
9:15 PM,24.8,24.8,100,29.67,2.5,North,4.6,-,N/A,,Overcast,10,2013-01-29 04:15:00
9:35 PM,24.8,24.8,100,29.67,4.0,NNE,5.8,-,N/A,,Overcast,30,2013-01-29 04:35:00
9:55 PM,24.8,24.8,100,29.67,5.0,North,4.6,-,N/A,,Overcast,360,2013-01-29 04:55:00
10:15 PM,24.8,23.0,93,29.67,3.0,NE,5.8,-,N/A,,Overcast,40,2013-01-29 05:15:00
10:35 PM,24.8,23.0,93,29.67,1.8,East,5.8,-,N/A,,Overcast,80,2013-01-29 05:35:00
10:55 PM,23.0,23.0,100,29.67,0.8,East,8.1,-,N/A,,Overcast,80,2013-01-29 05:55:00
11:15 PM,23.0,23.0,100,29.66,0.8,East,8.1,-,N/A,,Overcast,80,2013-01-29 06:15:00
11:35 PM,23.0,23.0,100,29.66,2.5,East,8.1,-,N/A,,Overcast,90,2013-01-29 06:35:00
11:54 PM,23.0,23.0,100,29.64,1.0,ENE,8.1,-,N/A,,Overcast,70,2013-01-29 06:54:00